sat.trackr.live / text

‹ back to catalog

STARLINK-34761

NORAD 64954 · 2025-158Y

PAYLOAD ACTIVE UNKNOWN

§ Identity

Operator
Country
US
Launch date
2025-07-27
Launch site
AFWTR
Launch vehicle
Mass (kg)
RCS (m²)

Purposes: comms

External: N2YO · Heavens-Above · Gunter

§ Orbital elements

Epoch: 2026-05-25T03:05:10.653792Z

Period
95.64 min
Inclination
97.4495°
Eccentricity
0.0002293
Mean motion
15.05656188 rev/d
Perigee alt
547.9 km
Apogee alt
551.1 km
Semi-major
6,927.6 km
B*
1.5130e-4
RAAN
8.9911°
Arg perigee
78.6397°
Mean anomaly
281.5088°
Rev number
4,685

§ Raw data

STARLINK-347611 64954U 25158Y   26145.12859553  .00002125  00000+0  15130-3 0  99972 64954  97.4495   8.9911 0002293  78.6397 281.5088 15.05656188 46852

JSON: /api/v1/satellites/64954 · /tle

For live sub-satellite position, see the globe view (requires WebGL).

§ Visibility from observer

Set your observer location to see the next 7 days of passes ≥ 10°. The values pass through the URL so the page stays shareable.

No JS? Fill the form by hand. The geolocation button needs JavaScript.